Location: General Nathan Twining Observatory
(34.5931°N, 106.8201°W)
Time: 12:40:26
(UTC-06:00)

ADEOS II - Visible Passes

Search period start: 29 September 2016 00:00
Search period end: 09 October 2016 00:00
Orbit: 799 x 802 km, 98.3° (Epoch: 29 September)

Date Brightness Start Highest point End Pass type
(mag) Time Alt. Az. Time Alt. Az. Time Alt. Az.
29 Sep 4.5 04:19:42 10° NE 04:23:26 19° E 04:27:08 10° SE visible
29 Sep 2.4 05:58:20 10° N 06:03:17 42° WNW 06:08:12 10° SW visible
30 Sep 2.0 05:31:46 10° N 05:37:02 78° WNW 05:42:16 10° SSW visible
01 Oct 2.6 05:05:30 10° NNE 05:10:41 58° E 05:15:51 10° S visible
02 Oct 3.7 04:39:36 10° NE 04:44:15 31° E 04:48:53 10° SSE visible
02 Oct 3.0 06:19:28 10° NNW 06:23:49 27° WNW 06:28:09 10° SW visible
03 Oct 4.6 04:14:20 10° NE 04:17:43 17° E 04:21:06 10° SE visible
03 Oct 2.3 05:52:36 10° N 05:57:39 48° WNW 06:02:39 10° SW visible
04 Oct 2.0 05:26:06 10° NNE 05:31:22 87° WNW 05:36:38 10° SSW visible
05 Oct 2.8 04:59:53 10° NNE 05:05:01 51° E 05:10:07 10° S visible
05 Oct 3.5 06:40:58 10° NNW 06:44:16 17° WNW 06:47:35 10° WSW visible
06 Oct 3.9 04:34:04 10° NE 04:38:33 28° E 04:43:01 10° SSE visible
06 Oct 2.9 06:13:40 10° N 06:18:11 30° WNW 06:22:42 10° SW visible
07 Oct 4.8 04:09:00 10° ENE 04:12:00 15° E 04:14:59 10° SE visible
07 Oct 2.2 05:46:52 10° N 05:52:00 54° WNW 05:57:06 10° SSW visible
08 Oct 2.1 05:20:25 10° NNE 05:25:43 84° ESE 05:30:58 10° SSW visible
